Regional Weather Roundup
Issued by NWS Little Rock, AR

Home | Current Version | Previous Version | Graphics & Text | Print | Product List | Glossary On
Versions: 1 2 3 4 5 6 7 8 9 10 11 12 13 14 15 16 17 18 19 20 21 22 23 24 25 26 27 28 29 30 31 32 33 34 35 36 37 38 39 40 41 42 43 44 45 46 47 48 49 50
423
ASUS44 KLZK 301605
RWRLZK

WEATHER ROUNDUP FOR ARKANSAS
NATIONAL WEATHER SERVICE LITTLE ROCK AR
1100 AM CDT SAT APR 30 2016

NOTE: "FAIR" INDICATES FEW OR NO CLOUDS BELOW 12,000 FEET WITH NO
SIGNIFICANT WEATHER AND/OR OBSTRUCTIONS TO VISIBILITY.

ARZ001-003-010-029-301700-
NORTHWEST ARKANSAS

CITY           SKY/WX    TMP DP  RH WIND       PRES   REMARKS
FAYETTEVILLE   CLOUDY    66  63  90 S12G18    29.77R
FORT SMITH     CLOUDY    72  62  71 SW8       29.76S
HARRISON       PTSUNNY   67  61  81 VRB5      29.77R
BENTONVILLE    CLOUDY    66  61  82 SW9       29.77R
ROGERS         CLOUDY    67  62  84 S15       29.77R
SILOAM SPGS    CLOUDY    64  55  72 W8        29.77R
HIGHFILL       CLOUDY    66  65  96 S10       29.76R
SPRINGDALE     CLOUDY    66  63  88 S13       29.79R
$$

ARZ004-005-016-301700-
NORTH CENTRAL ARKANSAS

CITY           SKY/WX    TMP DP  RH WIND       PRES   REMARKS
BATESVILLE     CLOUDY    66  61  82 S7        29.80R
FLIPPIN        CLOUDY   N/A N/A N/A S3        29.74R
MTN HOME       CLOUDY    65  61  87 S6        29.75R
$$

ARZ040-041-301700-
WEST CENTRAL ARKANSAS

CITY           SKY/WX    TMP DP  RH WIND       PRES   REMARKS
MENA           CLOUDY    72  64  78 S7        29.79F
MOUNT IDA      PTSUNNY   69  62  78 CALM      29.76S
$$

ARZ009-017-025-026-028-301700-
NORTHEAST ARKANSAS

CITY           SKY/WX    TMP DP  RH WIND       PRES   REMARKS
CORNING          N/A     68  64  88 SW9       29.80S
JONESBORO      CLOUDY    69  60  73 SW13      29.79S
NEWPORT        CLOUDY    68  63  84 S10       29.80R
WALNUT RIDGE   CLOUDY    68  61  77 SW6       29.79S
BLYTHEVILLE    CLOUDY    68  60  75 S15       29.83S
$$

ARZ022-023-033-042-044-301700-
CENTRAL ARKANSAS

CITY           SKY/WX    TMP DP  RH WIND       PRES   REMARKS
LITTLE ROCK    CLOUDY    68  63  84 CALM      29.80R
N LITTLE ROCK    N/A     67  63  89 CALM      29.79R
JACKSONVILLE   CLOUDY    68  64  85 S3        29.79R
SEARCY         CLOUDY    68  64  87 S6        29.81R
HOT SPRINGS    CLOUDY    67  62  84 CALM      29.79R
RUSSELLVILLE   CLOUDY    67  63  87 VRB5      29.78R
$$

ARZ036-301700-
EAST ARKANSAS

CITY           SKY/WX    TMP DP  RH WIND       PRES   REMARKS
WEST MEMPHIS   PTSUNNY   68  61  78 VRB5      29.78F
$$

ARZ050-053-066-070-073-301700-
SOUTHWEST ARKANSAS

CITY           SKY/WX    TMP DP  RH WIND       PRES   REMARKS
ARKADELPHIA    FAIR      67  67 100 CALM      29.79R
CAMDEN         CLOUDY    68  61  77 W3        29.81R
TEXARKANA      CLOUDY    69  63  81 CALM      29.75F
EL DORADO      CLOUDY    70  60  70 SW9       29.80R
$$

ARZ056-057-069-301700-
SOUTHEAST ARKANSAS

CITY           SKY/WX    TMP DP  RH WIND       PRES   REMARKS
PINE BLUFF     PTSUNNY   70  58  65 S8        29.80R
STUTTGART      CLOUDY    70  61  73 S10       29.80S
MONTICELLO     CLOUDY    72  56  57 SE12G22   29.75F

$$






USA.gov is the U.S. government's official web portal to all federal, state and local government web resources and services.